Flag for Germany Weather past 2 weeks in Ostfildern, Baden-Württemberg, Germany

Now
90 °F

Passing clouds.


Feels Like: 93 °F
Forecast: 69 / 95 °F
Wind: 6 mph from East

Location: Stuttgart-Echterdingen

Current Time: Jul 4, 2015 at 12:49:39 PM

Latest Report: Jul 4, 2015 at 12:20 PM


Visibility: N/A

Pressure: 30.18 "Hg

Humidity: 49%

Dew point: 68 °F

Location of OstfildernLocation

Historic Weather in Ostfildern — Graph

°F

Ostfildern temperature yesterday

Maximum temperature yesterday: 91 °F (at 1:20 PM)
Minimum temperature yesterday: 68 °F (at 6:20 AM)
Average temperature yesterday: 80 °F

Past Weeks' High & Low Weather Summary

 TemperatureHumidityPressure
High91 °F (Jul 2, 2:50 PM)100% (Jun 20, 4:50 AM)30.27 "Hg (Jun 20, 4:50 AM)
Low46 °F (Jun 24, 4:50 AM)29% (Jul 1, 1:50 PM)29.74 "Hg (Jun 22, 8:50 PM)
Average65 °F70%30.12 "Hg
* Reported Jun 19 11:20 AM — Jul 4 11:20 AM, Ostfildern, Weather by CustomWeather, © 2015

Note: Actual official high and low records may vary slightly from our data, if they occured in-between our weather recording intervals... More about our weather records

Advertising

Ostfildern weather history for previous 24 hours

 ConditionsComfort  
Time TempWeatherWind HumidityBarometerVisibility
11:20 AM
Sat, Jul 4
88 °FSunny.3 mph49%30.18 "Hg10 mi
10:50 AM86 °FPassing clouds.5 mph52%30.18 "HgN/A
10:20 AM84 °FPassing clouds.5 mph55%30.18 "HgN/A
9:50 AM82 °FPassing clouds.3 mph55%30.18 "HgN/A
9:20 AM79 °FSunny.2 mph61%30.18 "Hg10 mi
8:50 AM77 °FPassing clouds.3 mph74%30.18 "HgN/A
8:20 AM73 °FPassing clouds.5 mph83%30.18 "HgN/A
7:50 AM72 °FSunny.2 mph83%30.18 "Hg10 mi
7:20 AM70 °FSunny.1 mph88%30.18 "Hg10 mi
6:50 AM66 °FFog.2 mph88%30.18 "HgN/A
6:20 AM66 °FFog.2 mph88%30.18 "HgN/A
5:50 AM64 °FFog.3 mph94%30.18 "HgN/A
5:20 AM64 °FFog.1 mph94%30.18 "HgN/A
4:50 AM66 °FClear.1 mph88%30.18 "Hg10 mi
4:20 AM66 °FClear.2 mph88%30.18 "Hg10 mi
3:50 AM66 °FClear.1 mph88%30.18 "Hg10 mi
3:20 AM68 °FClear.2 mph88%30.18 "Hg10 mi
2:50 AM68 °FClear.2 mph88%30.18 "Hg10 mi
2:20 AM68 °FClear.2 mph83%30.21 "Hg10 mi
1:50 AM70 °FClear.2 mph94%30.21 "Hg10 mi
1:20 AM70 °FClear.2 mph88%30.21 "Hg10 mi
12:50 AM72 °FClear.1 mph88%30.21 "Hg10 mi
12:20 AM72 °FClear.1 mph83%30.21 "Hg10 mi
11:50 PM
Fri, Jul 3
73 °FClear.2 mph83%30.21 "Hg10 mi
11:20 PM73 °FClear.No wind83%30.21 "Hg10 mi
10:50 PM75 °FClear.1 mph83%30.21 "Hg10 mi
10:20 PM77 °FSunny.1 mph74%30.21 "Hg10 mi
9:50 PM79 °FSunny.1 mph74%30.21 "Hg10 mi
9:20 PM79 °FSunny.1 mph74%30.21 "Hg10 mi
8:50 PM81 °FSunny.1 mph70%30.21 "Hg10 mi
8:20 PM82 °FPassing clouds.3 mph66%30.21 "HgN/A
7:50 PM84 °FPassing clouds.3 mph66%30.21 "HgN/A
7:20 PM86 °FSunny.1 mph59%30.21 "Hg10 mi
6:50 PM86 °FSunny.No wind52%30.21 "Hg10 mi
6:20 PM84 °FPassing clouds.3 mph58%30.24 "HgN/A
5:50 PM88 °FPassing clouds.5 mph46%30.21 "HgN/A
5:20 PM90 °FPassing clouds.8 mph43%30.21 "HgN/A
4:50 PM88 °FPassing clouds.8 mph46%30.21 "HgN/A
4:20 PM90 °FBroken clouds.2 mph33%30.21 "HgN/A
3:50 PM91 °FPartly sunny.1 mph34%30.24 "HgN/A
3:20 PM91 °FScattered clouds.1 mph30%30.24 "HgN/A
2:50 PM91 °FScattered clouds.2 mph36%30.24 "HgN/A
2:20 PM91 °FPassing clouds.2 mph36%30.24 "HgN/A
1:50 PM91 °FSunny.3 mph38%30.24 "Hg10 mi
1:20 PM91 °FSunny.2 mph41%30.24 "Hg10 mi
12:50 PM90 °FSunny.2 mph41%30.24 "Hg10 mi
12:20 PM90 °FPassing clouds.3 mph46%30.24 "HgN/A
Weather by CustomWeather, © 2015

See weather overviewHow to use our weather pages